60.8°F
Current conditions from King Hill
Updated every 5 minutes
 
  Wednesday September 3, 2014

Station Historical Data
Daily Summary for December 1, 2011 Units:  Metric    English   Both
« Previous Day
Next Day »
Daily Weekly Monthly Yearly Custom
  High: Low: Average:
Temperature: 1.4 °C -4.4 °C -1.9 °C
Dew Point: -3.1 °C -7.6 °C -6.1 °C
Humidity: 86% 58% 74%
Wind Speed: 14.5km/h 1.6km/h 4.8km/h
Wind Gust: 27.4km/h - -
Wind- - SW
Pressure: 1025.3 hPa 1011.4 hPa -
Precipitation: 0.3 mm    
Historical Graphs
 
 
Tabular Data for December 1, 2011
Time Temperature Dew Point Pressure Wind Wind Speed Wind Gust Humidity Daily Rainfall
00:04 0.4 °C -3.2 °C 1011.4 hPa NW 8 km/h 22.5 km/h 77% 0 mm
00:09 0.3 °C -3.2 °C 1011.4 hPa NNW 9.7 km/h 22.5 km/h 77% 0 mm
00:14 0.3 °C -3.2 °C 1011.4 hPa WNW 8 km/h 20.9 km/h 77% 0 mm
00:19 0.3 °C -3.1 °C 1011.7 hPa NW 3.2 km/h 17.7 km/h 78% 0 mm
00:24 0.3 °C -3.3 °C 1011.7 hPa NW 8 km/h 19.3 km/h 77% 0 mm
00:29 0.3 °C -3.3 °C 1011.7 hPa NW 9.7 km/h 19.3 km/h 77% 0 mm
00:35 0.3 °C -3.3 °C 1012.1 hPa NW 11.3 km/h 24.1 km/h 77% 0 mm
00:44 0.2 °C -3.2 °C 1012.1 hPa NW 1.6 km/h 19.3 km/h 78% 0 mm
00:49 0.2 °C -3.4 °C 1012.4 hPa NW 11.3 km/h 27.4 km/h 77% 0 mm
00:54 0.1 °C -3.5 °C 1012.8 hPa NW 9.7 km/h 27.4 km/h 77% 0 mm
00:59 0 °C -3.7 °C 1012.8 hPa NW 12.9 km/h 20.9 km/h 76% 0 mm
01:04 -0.1 °C -3.8 °C 1013.1 hPa NW 14.5 km/h 25.7 km/h 76% 0 mm
01:09 -0.2 °C -4.1 °C 1013.1 hPa NW 11.3 km/h 25.7 km/h 75% 0 mm
01:14 -0.2 °C -4.1 °C 1013.1 hPa NW 14.5 km/h 25.7 km/h 75% 0 mm
01:19 -0.2 °C -3.9 °C 1013.1 hPa NW 8 km/h 24.1 km/h 76% 0 mm
01:24 -0.3 °C -4.2 °C 1013.1 hPa NW 8 km/h 19.3 km/h 75% 0 mm
01:29 -0.4 °C -4.3 °C 1013.4 hPa NW 11.3 km/h 25.7 km/h 75% 0 mm
01:34 -0.5 °C -4.6 °C 1013.4 hPa NNW 9.7 km/h 25.7 km/h 74% 0 mm
01:39 -0.6 °C -4.4 °C 1013.8 hPa NNW 4.8 km/h 20.9 km/h 75% 0 mm
01:44 -0.7 °C -4.9 °C 1014.1 hPa NNW 6.4 km/h 20.9 km/h 73% 0 mm
01:49 -0.8 °C -5 °C 1014.1 hPa NNW 6.4 km/h 19.3 km/h 73% 0 mm
01:54 -0.9 °C -5.3 °C 1014.4 hPa NW 8 km/h 19.3 km/h 72% 0 mm
01:59 -1 °C -5.6 °C 1014.4 hPa NW 11.3 km/h 19.3 km/h 71% 0 mm
02:04 -1.1 °C -5.7 °C 1014.4 hPa NW 4.8 km/h 19.3 km/h 71% 0 mm
02:09 -1.1 °C -5.8 °C 1014.8 hPa NW 9.7 km/h 19.3 km/h 70% 0 mm
02:14 -1.2 °C -5.9 °C 1014.8 hPa NW 6.4 km/h 25.7 km/h 70% 0 mm
02:19 -1.2 °C -6.1 °C 1014.8 hPa NW 11.3 km/h 25.7 km/h 69% 0 mm
02:24 -1.2 °C -6 °C 1014.8 hPa NNW 4.8 km/h 20.9 km/h 70% 0 mm
02:29 -1.2 °C -6.2 °C 1014.8 hPa NW 11.3 km/h 20.9 km/h 69% 0 mm
02:34 -1.3 °C -6.1 °C 1015.1 hPa NW 4.8 km/h 20.9 km/h 70% 0 mm
02:39 -1.3 °C -6.2 °C 1015.1 hPa NW 8 km/h 20.9 km/h 69% 0 mm
02:44 -1.3 °C -6.1 °C 1015.5 hPa NW 6.4 km/h 20.9 km/h 70% 0 mm
02:49 -1.3 °C -6.3 °C 1015.5 hPa NNW 6.4 km/h 19.3 km/h 69% 0 mm
02:54 -1.4 °C -6.3 °C 1015.8 hPa NNW 9.7 km/h 16.1 km/h 69% 0 mm
02:59 -1.4 °C -6.3 °C 1015.8 hPa NW 8 km/h 17.7 km/h 69% 0 mm
03:04 -1.4 °C -6.4 °C 1015.8 hPa NW 6.4 km/h 17.7 km/h 69% 0 mm
03:09 -1.4 °C -6.2 °C 1015.8 hPa NW 6.4 km/h 19.3 km/h 70% 0 mm
03:14 -1.5 °C -6.3 °C 1016.1 hPa NW 9.7 km/h 19.3 km/h 70% 0 mm
03:19 -1.5 °C -6.3 °C 1016.1 hPa NNW 4.8 km/h 14.5 km/h 70% 0 mm
03:24 -1.5 °C -6.4 °C 1016.1 hPa NNW 6.4 km/h 11.3 km/h 69% 0 mm
03:29 -1.6 °C -6.3 °C 1016.1 hPa Calm   8 km/h 70% 0 mm
03:34 -1.6 °C -6.3 °C 1016.1 hPa North 1.6 km/h 9.7 km/h 70% 0 mm
03:39 -1.6 °C -6.3 °C 1016.5 hPa NNW 6.4 km/h 11.3 km/h 70% 0 mm
03:44 -1.6 °C -6.3 °C 1016.5 hPa NW 6.4 km/h 12.9 km/h 70% 0 mm
03:49 -1.6 °C -6.4 °C 1016.5 hPa NNW 1.6 km/h 12.9 km/h 70% 0 mm
03:54 -1.6 °C -6.2 °C 1016.5 hPa Calm   11.3 km/h 71% 0 mm
03:59 -1.7 °C -6.4 °C 1016.8 hPa NNW 3.2 km/h 12.9 km/h 70% 0 mm
04:04 -1.7 °C -6.4 °C 1017.2 hPa NNW 6.4 km/h 12.9 km/h 70% 0 mm
04:09 -1.7 °C -6.4 °C 1017.2 hPa NW 3.2 km/h 12.9 km/h 70% 0 mm
04:14 -1.7 °C -6.7 °C 1017.2 hPa NW 8 km/h 14.5 km/h 69% 0 mm
04:19 -1.8 °C -6.7 °C 1017.5 hPa NNW 3.2 km/h 14.5 km/h 69% 0 mm
04:24 -1.8 °C -6.9 °C 1017.5 hPa NNW 9.7 km/h 20.9 km/h 68% 0 mm
04:29 -1.8 °C -6.7 °C 1017.5 hPa NNW 1.6 km/h 20.9 km/h 69% 0 mm
04:34 -1.8 °C -6.8 °C 1017.8 hPa NNW 1.6 km/h 16.1 km/h 69% 0 mm
04:39 -1.9 °C -6.9 °C 1017.8 hPa NNW 1.6 km/h 12.9 km/h 69% 0 mm
04:44 -2.1 °C -6.8 °C 1017.8 hPa NNW 6.4 km/h 12.9 km/h 70% 0 mm
04:49 -2.2 °C -6.7 °C 1017.8 hPa NNW 1.6 km/h 12.9 km/h 71% 0 mm
04:54 -2.3 °C -6.9 °C 1018.2 hPa North 1.6 km/h 9.7 km/h 71% 0 mm
04:59 -2.4 °C -6.8 °C 1018.2 hPa NW 1.6 km/h 8 km/h 72% 0 mm
05:04 -2.6 °C -6.9 °C 1018.5 hPa NNW 3.2 km/h 16.1 km/h 72% 0 mm
05:09 -2.6 °C -6.9 °C 1018.2 hPa NNW 6.4 km/h 16.1 km/h 72% 0 mm
05:14 -2.7 °C -7 °C 1018.5 hPa NNW 3.2 km/h 16.1 km/h 72% 0 mm
05:19 -2.7 °C -7 °C 1018.8 hPa Calm   14.5 km/h 72% 0 mm
05:24 -2.7 °C -6.9 °C 1018.8 hPa NW 1.6 km/h 14.5 km/h 73% 0 mm
05:34 -2.8 °C -7 °C 1019.2 hPa NW 1.6 km/h 16.1 km/h 73% 0 mm
05:39 -2.9 °C -7.1 °C 1019.2 hPa Calm   16.1 km/h 73% 0 mm
05:44 -2.9 °C -6.9 °C 1019.5 hPa Calm   4.8 km/h 74% 0 mm
05:49 -3 °C -7 °C 1019.5 hPa Calm   9.7 km/h 74% 0 mm
05:54 -3.1 °C -7.1 °C 1019.5 hPa NNW 1.6 km/h 9.7 km/h 74% 0 mm
05:59 -3.1 °C -7.1 °C 1019.9 hPa Calm   6.4 km/h 74% 0 mm
06:04 -3.2 °C -7.2 °C 1019.9 hPa Calm   6.4 km/h 74% 0 mm
06:09 -3.2 °C -7.2 °C 1019.9 hPa North 1.6 km/h 9.7 km/h 74% 0 mm
06:14 -3.3 °C -7.2 °C 1020.2 hPa Calm   9.7 km/h 74% 0 mm
06:19 -3.4 °C -7.2 °C 1020.2 hPa Calm   6.4 km/h 75% 0 mm
06:24 -3.4 °C -7.2 °C 1020.2 hPa NNE 1.6 km/h 11.3 km/h 75% 0 mm
06:29 -3.5 °C -7.1 °C 1020.2 hPa NNE 1.6 km/h 11.3 km/h 76% 0 mm
06:34 -3.6 °C -7.2 °C 1020.5 hPa NE 1.6 km/h 6.4 km/h 76% 0 mm
06:39 -3.7 °C -7.3 °C 1020.5 hPa Calm   6.4 km/h 76% 0 mm
06:44 -3.8 °C -7.4 °C 1020.5 hPa Calm     76% 0 mm
06:49 -3.9 °C -7.4 °C 1020.5 hPa Calm   3.2 km/h 77% 0 mm
06:54 -4.1 °C -7.5 °C 1020.5 hPa Calm   4.8 km/h 77% 0 mm
06:59 -4.1 °C -7.6 °C 1020.9 hPa Calm   4.8 km/h 77% 0 mm
07:04 -4.1 °C -7.4 °C 1020.9 hPa Calm   1.6 km/h 78% 0 mm
07:09 -4.1 °C -7.3 °C 1020.9 hPa Calm   4.8 km/h 78% 0 mm
07:14 -4.1 °C -7.4 °C 1021.2 hPa Calm   4.8 km/h 78% 0 mm
07:19 -4.2 °C -7.4 °C 1021.2 hPa Calm   1.6 km/h 78% 0 mm
07:24 -4.2 °C -7.5 °C 1021.6 hPa Calm     78% 0 mm
07:29 -4.3 °C -7.6 °C 1021.6 hPa Calm   4.8 km/h 78% 0 mm
07:34 -4.4 °C -7.5 °C 1021.6 hPa Calm   4.8 km/h 79% 0 mm
07:39 -4.4 °C -7.4 °C 1021.6 hPa Calm   8 km/h 80% 0 mm
07:44 -4.4 °C -7.4 °C 1021.9 hPa Calm   8 km/h 80% 0 mm
07:49 -4.4 °C -7.4 °C 1021.9 hPa Calm     80% 0 mm
07:54 -4.4 °C -7.4 °C 1022.2 hPa Calm     80% 0 mm
07:59 -4.4 °C -7.2 °C 1022.2 hPa NNE 1.6 km/h 8 km/h 81% 0 mm
08:04 -4.3 °C -7.1 °C 1022.2 hPa Calm   8 km/h 81% 0 mm
08:09 -4.2 °C -7 °C 1022.2 hPa NNE 3.2 km/h 9.7 km/h 81% 0 mm
08:14 -4.1 °C -6.8 °C 1022.2 hPa NNE 1.6 km/h 12.9 km/h 81% 0 mm
08:19 -3.9 °C -6.9 °C 1022.2 hPa NNE 3.2 km/h 12.9 km/h 80% 0 mm
08:24 -3.9 °C -6.8 °C 1022.2 hPa NE 3.2 km/h 11.3 km/h 80% 0 mm
08:29 -3.8 °C -6.9 °C 1022.2 hPa NNW 1.6 km/h 11.3 km/h 79% 0 mm
08:34 -3.8 °C -6.9 °C 1022.6 hPa NNE 1.6 km/h 8 km/h 79% 0 mm
08:39 -3.8 °C -6.9 °C 1022.6 hPa Calm   8 km/h 79% 0 mm
08:44 -3.7 °C -6.8 °C 1022.9 hPa NNW 1.6 km/h 8 km/h 79% 0 mm
08:49 -3.6 °C -6.7 °C 1022.9 hPa NNW 4.8 km/h 14.5 km/h 79% 0 mm
08:54 -3.3 °C -6.6 °C 1023.2 hPa North 3.2 km/h 17.7 km/h 78% 0 mm
08:59 -3.2 °C -6.5 °C 1023.2 hPa North 6.4 km/h 17.7 km/h 78% 0 mm
09:04 -3 °C -6.3 °C 1023.2 hPa NNW 9.7 km/h 22.5 km/h 78% 0 mm
09:09 -2.7 °C -6.4 °C 1023.2 hPa NNW 8 km/h 22.5 km/h 76% 0 mm
09:14 -2.5 °C -6.3 °C 1023.2 hPa NNW 9.7 km/h 20.9 km/h 75% 0 mm
09:19 -2.3 °C -6.2 °C 1023.2 hPa NNW 6.4 km/h 17.7 km/h 75% 0 mm
09:24 -2 °C -6 °C 1023.2 hPa North 3.2 km/h 17.7 km/h 74% 0 mm
09:29 -1.7 °C -5.7 °C 1023.2 hPa NW 4.8 km/h 11.3 km/h 74% 0 mm
09:39 -1.5 °C -6.1 °C 1023.6 hPa NNE 3.2 km/h 14.5 km/h 71% 0 mm
09:44 -1.7 °C -6.1 °C 1023.6 hPa NNW 3.2 km/h 14.5 km/h 72% 0 mm
09:49 -1.5 °C -5.9 °C 1023.6 hPa NNW 3.2 km/h 12.9 km/h 72% 0 mm
09:54 -1.4 °C -6 °C 1023.6 hPa North 1.6 km/h 12.9 km/h 71% 0 mm
09:59 -1.5 °C -6.1 °C 1023.6 hPa NNW 4.8 km/h 9.7 km/h 71% 0 mm
10:04 -1.7 °C -6.4 °C 1023.6 hPa NNW 4.8 km/h 11.3 km/h 70% 0 mm
10:09 -1.7 °C -6.3 °C 1023.9 hPa NW 4.8 km/h 11.3 km/h 71% 0 mm
10:14 -1.6 °C -6.2 °C 1023.9 hPa North 4.8 km/h 12.9 km/h 71% 0 mm
10:19 -1.6 °C -6.1 °C 1023.6 hPa NNE 1.6 km/h 12.9 km/h 71% 0 mm
10:24 -1.6 °C -6 °C 1023.6 hPa ENE 3.2 km/h 11.3 km/h 72% 0 mm
10:29 -1.4 °C -6.2 °C 1023.6 hPa NE 4.8 km/h 12.9 km/h 70% 0 mm
10:34 -1.2 °C -5.6 °C 1023.2 hPa North 1.6 km/h 12.9 km/h 72% 0 mm
10:39 -0.9 °C -6.1 °C 1023.2 hPa NNE 3.2 km/h 9.7 km/h 68% 0 mm
10:44 -0.7 °C -5.7 °C 1022.9 hPa Calm   9.7 km/h 69% 0 mm
10:49 -0.6 °C -6 °C 1022.9 hPa NE 1.6 km/h 9.7 km/h 67% 0 mm
10:54 -0.5 °C -5.9 °C 1022.9 hPa Calm   9.7 km/h 67% 0 mm
10:59 -0.4 °C -5.8 °C 1022.9 hPa NNW 3.2 km/h 8 km/h 67% 0 mm
11:04 -0.2 °C -5.8 °C 1022.9 hPa NNE 1.6 km/h 8 km/h 66% 0 mm
11:09 -0.2 °C -5.9 °C 1022.6 hPa Calm   8 km/h 65% 0 mm
11:14 -0.1 °C -5.7 °C 1022.6 hPa North 3.2 km/h 8 km/h 66% 0 mm
11:19 0 °C -5.6 °C 1022.9 hPa NNW 1.6 km/h 8 km/h 66% 0 mm
11:24 0.1 °C -5.7 °C 1022.9 hPa NNW 1.6 km/h 6.4 km/h 65% 0 mm
11:29 0.1 °C -5.5 °C 1022.9 hPa NW 3.2 km/h 9.7 km/h 66% 0 mm
11:34 0.2 °C -5.8 °C 1022.6 hPa North 1.6 km/h 9.7 km/h 64% 0 mm
11:39 0.2 °C -5.6 °C 1022.6 hPa Calm   6.4 km/h 65% 0 mm
11:44 0.2 °C -5.8 °C 1022.9 hPa NNW 4.8 km/h 9.7 km/h 64% 0 mm
11:49 0.1 °C -6.6 °C 1022.9 hPa NNW 4.8 km/h 9.7 km/h 61% 0 mm
11:54 0.2 °C -6.1 °C 1022.6 hPa Calm   8 km/h 63% 0 mm
11:59 0.2 °C -6.2 °C 1022.6 hPa NNW 3.2 km/h 8 km/h 62% 0 mm
12:04 0.4 °C -5.8 °C 1022.6 hPa NW 1.6 km/h 8 km/h 63% 0 mm
12:09 0.4 °C -6.2 °C 1022.6 hPa NW 4.8 km/h 9.7 km/h 61% 0 mm
12:14 0.3 °C -6.4 °C 1022.6 hPa Calm   9.7 km/h 61% 0 mm
12:19 0.3 °C -5.9 °C 1022.6 hPa NNW 1.6 km/h 6.4 km/h 63% 0 mm
12:24 0.5 °C -6.2 °C 1022.6 hPa NW 4.8 km/h 8 km/h 61% 0 mm
12:29 0.6 °C -6.1 °C 1022.6 hPa NW 8 km/h 12.9 km/h 61% 0 mm
12:35 0.7 °C -5.9 °C 1022.9 hPa NW 4.8 km/h 12.9 km/h 61% 0 mm
12:44 0.8 °C -5.7 °C 1022.6 hPa NW 4.8 km/h 11.3 km/h 62% 0 mm
12:49 0.7 °C -5.7 °C 1022.6 hPa NW 3.2 km/h 11.3 km/h 62% 0 mm
12:54 0.6 °C -6.3 °C 1022.6 hPa Calm   9.7 km/h 60% 0 mm
12:59 0.6 °C -6.3 °C 1022.6 hPa NW 1.6 km/h 6.4 km/h 60% 0 mm
13:04 0.7 °C -6.2 °C 1022.6 hPa Calm   6.4 km/h 60% 0 mm
13:09 0.8 °C -6.1 °C 1022.6 hPa North 1.6 km/h 9.7 km/h 60% 0 mm
13:14 0.9 °C -5.8 °C 1022.6 hPa Calm   9.7 km/h 61% 0 mm
13:19 1.1 °C -6 °C 1022.6 hPa Calm   9.7 km/h 59% 0 mm
13:24 1 °C -6.3 °C 1022.6 hPa Calm   6.4 km/h 58% 0 mm
13:29 0.9 °C -5.9 °C 1022.9 hPa NNE 1.6 km/h 8 km/h 60% 0 mm
13:34 1.2 °C -5.7 °C 1022.6 hPa Calm   8 km/h 60% 0 mm
13:39 1.3 °C -5.8 °C 1022.6 hPa NNE 1.6 km/h 6.4 km/h 59% 0 mm
13:44 1.3 °C -5.8 °C 1022.9 hPa NNE 1.6 km/h 8 km/h 59% 0 mm
13:49 1.3 °C -6 °C 1022.9 hPa NNE 4.8 km/h 8 km/h 58% 0 mm
13:54 1.3 °C -5.6 °C 1023.2 hPa Calm   8 km/h 60% 0 mm
13:59 1.3 °C -5.6 °C 1023.2 hPa NNE 1.6 km/h 6.4 km/h 60% 0 mm
14:04 1.3 °C -5.6 °C 1023.2 hPa NNE 1.6 km/h 8 km/h 60% 0 mm
14:09 1.3 °C -5.6 °C 1022.9 hPa Calm   8 km/h 60% 0 mm
14:14 1.4 °C -5.3 °C 1022.9 hPa NNE 1.6 km/h 8 km/h 61% 0 mm
14:19 1.4 °C -5.5 °C 1023.2 hPa NNE 1.6 km/h 8 km/h 60% 0 mm
14:24 1.4 °C -5.6 °C 1022.9 hPa NNE 1.6 km/h 11.3 km/h 60% 0 mm
14:29 1.4 °C -5.6 °C 1022.9 hPa Calm   11.3 km/h 60% 0 mm
14:34 1.3 °C -5.6 °C 1022.9 hPa Calm   9.7 km/h 60% 0 mm
14:39 1.2 °C -5.4 °C 1022.9 hPa Calm   9.7 km/h 61% 0 mm
14:44 1.1 °C -5.6 °C 1022.9 hPa NNE 3.2 km/h 9.7 km/h 61% 0 mm
14:49 0.9 °C -5.5 °C 1023.2 hPa Calm   9.7 km/h 62% 0 mm
14:54 0.8 °C -5.4 °C 1023.2 hPa Calm   8 km/h 63% 0 mm
14:59 0.7 °C -5.8 °C 1023.2 hPa NNE 4.8 km/h 9.7 km/h 62% 0 mm
15:04 0.6 °C -5.7 °C 1023.6 hPa Calm   9.7 km/h 63% 0 mm
15:09 0.4 °C -5.6 °C 1023.2 hPa Calm   4.8 km/h 64% 0 mm
15:14 0.4 °C -5.6 °C 1023.2 hPa Calm   4.8 km/h 64% 0 mm
15:19 0.2 °C -5.8 °C 1023.2 hPa Calm   6.4 km/h 64% 0 mm
15:24 0 °C -6 °C 1023.2 hPa NNE 3.2 km/h 8 km/h 64% 0 mm
15:34 -0.4 °C -6 °C 1023.2 hPa Calm   9.7 km/h 66% 0 mm
15:39 -0.5 °C -5.9 °C 1023.2 hPa Calm   3.2 km/h 67% 0 mm
15:44 -0.6 °C -5.7 °C 1023.2 hPa Calm   1.6 km/h 68% 0 mm
15:49 -0.7 °C -5.8 °C 1023.2 hPa NNE 1.6 km/h 6.4 km/h 68% 0 mm
15:54 -0.8 °C -5.8 °C 1023.2 hPa Calm   6.4 km/h 69% 0 mm
15:59 -1 °C -5.8 °C 1023.2 hPa Calm     70% 0 mm
16:04 -1.2 °C -6 °C 1023.2 hPa NNE 1.6 km/h 6.4 km/h 70% 0 mm
16:09 -1.4 °C -5.9 °C 1023.6 hPa Calm   6.4 km/h 71% 0.3 mm
16:14 -1.6 °C -6.1 °C 1023.6 hPa NNE 1.6 km/h 4.8 km/h 71% 0.3 mm
16:19 -1.7 °C -6.1 °C 1023.6 hPa Calm   8 km/h 72% 0.3 mm
16:24 -1.8 °C -6.1 °C 1023.6 hPa Calm   8 km/h 73% 0.3 mm
16:29 -2 °C -6 °C 1023.6 hPa Calm   8 km/h 74% 0.3 mm
16:34 -2.1 °C -6.1 °C 1023.9 hPa Calm   8 km/h 74% 0.3 mm
16:39 -2.2 °C -6.2 °C 1023.9 hPa NNE 1.6 km/h 6.4 km/h 74% 0.3 mm
16:44 -2.2 °C -6.1 °C 1023.9 hPa NNE 1.6 km/h 6.4 km/h 75% 0.3 mm
16:54 -2.3 °C -6.2 °C 1023.9 hPa NNE 1.6 km/h 8 km/h 75% 0.3 mm
16:59 -2.4 °C -6.2 °C 1023.9 hPa NNE 1.6 km/h 8 km/h 75% 0.3 mm
17:04 -2.4 °C -6.3 °C 1023.9 hPa NNE 3.2 km/h 11.3 km/h 75% 0.3 mm
17:09 -2.5 °C -6.2 °C 1023.9 hPa NNE 3.2 km/h 11.3 km/h 76% 0.3 mm
17:14 -2.6 °C -6.3 °C 1024.3 hPa NNE 1.6 km/h 9.7 km/h 76% 0.3 mm
17:19 -2.7 °C -6.2 °C 1024.3 hPa Calm   6.4 km/h 77% 0.3 mm
17:24 -2.8 °C -6.2 °C 1024.3 hPa Calm   6.4 km/h 77% 0.3 mm
17:29 -2.9 °C -6.3 °C 1024.6 hPa Calm   6.4 km/h 77% 0.3 mm
17:34 -2.9 °C -6.4 °C 1024.6 hPa Calm   4.8 km/h 77% 0.3 mm
17:39 -3 °C -6.3 °C 1024.6 hPa Calm   6.4 km/h 78% 0.3 mm
17:44 -3.1 °C -6.3 °C 1024.6 hPa Calm   6.4 km/h 78% 0.3 mm
17:49 -3.1 °C -6.4 °C 1024.6 hPa Calm   4.8 km/h 78% 0.3 mm
17:54 -3.2 °C -6.3 °C 1024.6 hPa Calm   4.8 km/h 79% 0.3 mm
17:59 -3.2 °C -6.3 °C 1024.6 hPa Calm   1.6 km/h 79% 0.3 mm
18:04 -3.2 °C -6.3 °C 1024.6 hPa Calm   1.6 km/h 79% 0.3 mm
18:09 -3.2 °C -6.3 °C 1024.6 hPa Calm   4.8 km/h 79% 0.3 mm
18:14 -3.3 °C -6.4 °C 1024.6 hPa Calm   4.8 km/h 79% 0.3 mm
18:19 -3.4 °C -6.5 °C 1024.9 hPa Calm     79% 0.3 mm
18:24 -3.5 °C -6.4 °C 1024.9 hPa Calm     80% 0.3 mm
18:29 -3.6 °C -6.5 °C 1024.9 hPa Calm     80% 0.3 mm
18:39 -3.7 °C -6.5 °C 1024.9 hPa Calm     81% 0.3 mm
18:44 -3.7 °C -6.5 °C 1024.9 hPa Calm   1.6 km/h 81% 0.3 mm
18:49 -3.8 °C -6.6 °C 1024.9 hPa Calm   1.6 km/h 81% 0.3 mm
18:54 -3.8 °C -6.6 °C 1024.9 hPa Calm     81% 0.3 mm
18:59 -3.9 °C -6.7 °C 1024.9 hPa Calm     81% 0.3 mm
19:04 -4 °C -6.6 °C 1024.9 hPa Calm     82% 0.3 mm
19:09 -4.1 °C -6.7 °C 1024.9 hPa Calm     82% 0.3 mm
19:14 -4.2 °C -6.8 °C 1024.9 hPa Calm     82% 0.3 mm
19:19 -4.2 °C -6.8 °C 1024.9 hPa Calm     82% 0.3 mm
19:24 -4.3 °C -6.9 °C 1024.9 hPa Calm     82% 0.3 mm
19:29 -4.4 °C -6.8 °C 1024.9 hPa Calm     83% 0.3 mm
19:34 -4.4 °C -6.9 °C 1024.9 hPa Calm     83% 0.3 mm
19:39 -4.4 °C -6.8 °C 1024.9 hPa Calm     83% 0.3 mm
19:44 -4.4 °C -6.8 °C 1024.9 hPa Calm     83% 0.3 mm
19:49 -4.4 °C -6.7 °C 1024.9 hPa Calm     84% 0.3 mm
19:54 -4.3 °C -6.6 °C 1024.9 hPa Calm     84% 0.3 mm
19:59 -4.3 °C -6.6 °C 1025.3 hPa Calm     84% 0.3 mm
20:04 -4.2 °C -6.5 °C 1025.3 hPa Calm     84% 0.3 mm
20:09 -4.2 °C -6.3 °C 1024.9 hPa Calm     85% 0.3 mm
20:14 -4.1 °C -6.3 °C 1024.9 hPa Calm     85% 0.3 mm
20:19 -4.1 °C -6.3 °C 1024.9 hPa Calm     85% 0.3 mm
20:24 -4.1 °C -6.2 °C 1024.9 hPa Calm     85% 0.3 mm
20:29 -4 °C -6.3 °C 1024.6 hPa Calm   3.2 km/h 84% 0.3 mm
20:34 -3.9 °C -6.2 °C 1024.9 hPa Calm   4.8 km/h 84% 0.3 mm
20:39 -3.8 °C -6.1 °C 1024.9 hPa Calm   4.8 km/h 84% 0.3 mm
20:44 -3.7 °C -6.1 °C 1024.9 hPa Calm   4.8 km/h 84% 0.3 mm
20:49 -3.6 °C -5.9 °C 1024.9 hPa Calm   3.2 km/h 84% 0.3 mm
20:54 -3.6 °C -6 °C 1024.9 hPa Calm   3.2 km/h 83% 0.3 mm
20:59 -3.6 °C -6 °C 1024.9 hPa Calm   1.6 km/h 83% 0.3 mm
21:04 -3.6 °C -6.1 °C 1024.9 hPa Calm     83% 0.3 mm
21:09 -3.7 °C -6.1 °C 1024.9 hPa Calm     83% 0.3 mm
21:14 -3.8 °C -6.2 °C 1024.9 hPa Calm     83% 0.3 mm
21:19 -3.8 °C -6.2 °C 1024.9 hPa Calm     83% 0.3 mm
21:29 -3.8 °C -6.1 °C 1024.9 hPa Calm     84% 0.3 mm
21:35 -3.8 °C -6.1 °C 1024.9 hPa Calm     84% 0.3 mm
21:44 -3.8 °C -6.1 °C 1024.9 hPa Calm     84% 0.3 mm
21:49 -3.8 °C -5.9 °C 1024.9 hPa Calm     85% 0.3 mm
21:54 -3.7 °C -5.9 °C 1024.9 hPa Calm     85% 0.3 mm
21:59 -3.7 °C -5.9 °C 1024.9 hPa Calm     85% 0.3 mm
22:04 -3.7 °C -5.8 °C 1024.9 hPa Calm     85% 0.3 mm
22:09 -3.6 °C -5.6 °C 1024.9 hPa Calm     86% 0.3 mm
22:14 -3.5 °C -5.5 °C 1024.9 hPa Calm     86% 0.3 mm
22:19 -3.4 °C -5.6 °C 1024.9 hPa Calm     85% 0.3 mm
22:24 -3.3 °C -5.5 °C 1024.9 hPa Calm     85% 0.3 mm
22:29 -3.3 °C -5.4 °C 1024.9 hPa Calm     85% 0.3 mm
22:34 -3.2 °C -5.4 °C 1024.9 hPa Calm     85% 0.3 mm
22:39 -3.1 °C -5.3 °C 1024.9 hPa Calm     85% 0.3 mm
22:44 -3.1 °C -5.2 °C 1024.9 hPa Calm     85% 0.3 mm
22:49 -2.9 °C -5.1 °C 1024.9 hPa Calm     85% 0.3 mm
22:54 -2.9 °C -5.1 °C 1024.9 hPa Calm     85% 0.3 mm
22:59 -2.8 °C -5 °C 1024.6 hPa Calm     85% 0.3 mm
23:04 -2.7 °C -4.9 °C 1024.6 hPa Calm   1.6 km/h 85% 0.3 mm
23:09 -2.7 °C -5 °C 1024.9 hPa NNE 1.6 km/h 4.8 km/h 84% 0.3 mm
23:14 -2.6 °C -5.2 °C 1024.6 hPa South 3.2 km/h 11.3 km/h 82% 0.3 mm
23:19 -2.4 °C -5.3 °C 1024.6 hPa South 4.8 km/h 11.3 km/h 81% 0.3 mm
23:24 -2.3 °C -5.5 °C 1024.3 hPa SSW 6.4 km/h 14.5 km/h 79% 0.3 mm
23:29 -2.4 °C -5.6 °C 1024.6 hPa SSW 6.4 km/h 14.5 km/h 79% 0.3 mm
23:34 -2.4 °C -5.7 °C 1024.3 hPa SSW 9.7 km/h 14.5 km/h 78% 0.3 mm
23:39 -2.4 °C -5.8 °C 1024.6 hPa South 6.4 km/h 14.5 km/h 78% 0.3 mm
23:44 -2.5 °C -5.8 °C 1024.3 hPa SSW 8 km/h 14.5 km/h 78% 0.3 mm
23:49 -2.4 °C -5.8 °C 1024.3 hPa SSW 4.8 km/h 12.9 km/h 78% 0.3 mm
23:54 -2.3 °C -5.6 °C 1024.3 hPa SSW 6.4 km/h 11.3 km/h 78% 0.3 mm
23:59 -2.2 °C -5.5 °C 1024.3 hPa SSW 6.4 km/h 11.3 km/h 78% 0.3 mm
Westford Weather
Compliments of Weather Underground

 
 
Current Radar Loop:

Copyright © WestfordWeather.net 2007-2014. All rights reserved.